Regional Weather Roundup
Issued by NWS

Home | Current Version | Previous Version | Text Only | Print | Product List | Glossary On
Versions: 1 2 3 4 5 6 7 8 9 10 11 12 13 14 15 16 17 18 19 20 21 22 23 24 25 26 27 28 29 30 31 32 33 34 35 36 37 38 39 40 41 42 43 44 45 46 47 48 49 50
000
ASUS44 KJAN 021010
RWRMS

MISSISSIPPI HOURLY WEATHER ROUNDUP
NATIONAL WEATHER SERVICE JACKSON MS
500 AM CDT SUN AUG 02 2015

NOTE: "FAIR: INDICATES FEW OR NO CLOUDS BELOW 12,000 FEET WITH NO
SIGNIFICANT WEATHER AND/OR OBSTRUCTIONS TO VISIBILITY.

MSZ001>002-007>008-010>013-018>021-025>028-034>036-021100-
NORTHWEST MISSISSIPPI

CITY           SKY/WX    TMP DP  RH WIND       PRES   REMARKS
CLARKSDALE       N/A     68  68 100 CALM      29.96R
CLEVELAND      FAIR      70  69  96 CALM      29.93S
GREENWOOD      CLEAR     67  64  90 N3        29.93S
GREENVILLE       N/A     70  69  97 N3        29.92F
OLIVE BRANCH     N/A     72  72 100 CALM      29.96S
OXFORD         FAIR      66  64  94 E3        29.97S
TUNICA         SUNNY     68  68 100 N5        29.95S
$$

MSZ003>006-009-014>017-022>024-029>033-037>039-021100-
NORTHEAST MISSISSIPPI

CITY           SKY/WX    TMP DP  RH WIND       PRES   REMARKS
COLUMBUS AFB   CLEAR     70  68  93 CALM      29.92S
CORINTH        FAIR      68  66  94 CALM      29.95S FOG
GOLDN TRIANGLE CLEAR     66  63  88 NW3       29.92S
STARKVILLE     FAIR      66  64  94 CALM      29.94R
TUPELO         CLEAR     70  66  87 NE7       29.94S
$$

MSZ040-058-021100-
CENTRAL MISSISSIPPI

CITY           SKY/WX    TMP DP  RH WIND       PRES   REMARKS
JACKSON INTL   CLEAR     70  65  84 N6        29.91S
JACKSON HAWKNS CLEAR     75  63  66 N3        29.92S
MERIDIAN KEY   CLEAR     68  64  87 N6        29.91S
MERIDIAN NAS   CLEAR     67  63  87 CALM      29.91F
VICKSBURG      CLEAR     67  65  93 CALM      29.92S
$$

MSZ059>079-021100-
SOUTH MISSISSIPPI

CITY           SKY/WX    TMP DP  RH WIND       PRES   REMARKS
BROOKHAVEN       N/A     66  64  94 CALM      29.93S
HATTIESBURG    CLEAR     69  65  86 CALM      29.89S
MCCOMB         CLEAR     74  63  68 N7        29.90F
NATCHEZ        CLEAR     66  63  88 CALM      29.92S
PINE BELT      CLEAR     70  61  73 N7        29.90S
$$

MSZ080>082-021100-
COASTAL MISSISSIPPI

CITY           SKY/WX    TMP DP  RH WIND       PRES   REMARKS
BILOXI         CLEAR     76  65  69 N3        29.86R
PASCAGOULA     CLEAR     71  69  93 CALM      29.86R
GULFPORT       CLEAR     72  65  78 NW3       29.86R
$$


USA.gov is the U.S. government's official web portal to all federal, state and local government web resources and services.